Weather in Kamenka

Russia / Penza Oblast     52°47′47″N   43°11′36″E
temp.,
°C
wind,
m/s
gust,
m/s
humid.,
%
clouds,
%
prec.,
mm/h
press.,
hPa
HPBL,
m
4 july, mon
mon400:00+16nnw2281100 0.0 101311
03:00+15n34915 0.0 101364
06:00+16n398921 0.0 1014251
09:00+20nne676289 0.0 10141270
12:00+22nne6756100 0.0 10141812
15:00+22n575578 0.0 10141727
18:00+20ene576211 0.0 1014580
21:00+15ene22740 0.0 101513
5 july, tue
tue500:00+13nnw2279100 0.0 101611
03:00+13nw227842 0.0 101619
06:00+15n2377100 0.0 1017111
09:00+20n45625 0.0 1018806
12:00+23ne45525 0.0 10171496
15:00+23ne34455 0.0 10171648
18:00+22ene34585 0.0 1017426
21:00+15ese45700 0.0 101859
6 july, wed
wed600:00+13se47760 0.0 101998
03:00+11sse47804 0.0 1019115
06:00+13s36755 0.0 1020170
09:00+19s44600 0.0 1019485
12:00+23s33545 0.0 1019923
15:00+25ssw34535 0.0 10181296
18:00+25s346317 0.0 1017441
21:00+19s48790 0.0 1017121
7 july, thu
thu700:00+17s497810 0.0 1017167
03:00+16ssw49789 0.0 1018159
06:00+17ssw387428 0.0 1018206
09:00+23sw46564 0.0 1018483
12:00+26sw44495 0.0 10181011
15:00+27sw34460 0.0 10171778
18:00+26s34570 0.0 1017200
21:00+20s34710 0.0 101854
8 july, fri
fri800:00+18sw34740 0.0 101841
03:00+17ssw22720 0.0 101816
06:00+19ssw23710 0.0 1019103
09:00+24ssw23510 0.0 1019496
12:00+27ssw33402 0.0 10181588
15:00+28ssw23375 0.0 10172015
18:00+27s23500 0.0 1017133
21:00+21sse23525 0.0 101714